0 ORBCOMM-X 1 21576U 91050C 25021.73973063 .00000851 00000-0 26689-3 0 9992 2 21576 98.3638 91.2139 0002498 267.9630 92.1275 14.43047945760999 0 ORBCOMM FM 1 1 23545U 95017A 25021.52661054 .00014851 00000-0 16624-2 0 9990 2 23545 69.9646 79.0853 0004997 241.0459 119.0193 14.86966758590689 0 ORBCOMM FM 2 1 23546U 95017B 25021.59225507 .00017391 00000-0 19326-2 0 9991 2 23546 69.9662 98.6104 0005772 227.4784 132.5882 14.87211751590632 0 ORBCOMM FM 8 1 25112U 97084A 25021.93116289 .00004701 00000-0 13774-2 0 9994 2 25112 45.0152 349.5281 0006544 246.4143 113.6021 14.44890879420212 0 ORBCOMM FM 10 1 25113U 97084B 25021.96066676 .00004222 00000-0 12461-2 0 9992 2 25113 45.0164 351.5205 0003771 219.6934 140.3641 14.44707143595369 0 ORBCOMM FM 11 1 25114U 97084C 25021.94063121 .00004155 00000-0 12326-2 0 9998 2 25114 45.0148 351.9926 0004613 216.8285 143.2249 14.44485793420323 0 ORBCOMM FM 12 1 25115U 97084D 25021.90490846 .00004439 00000-0 13140-2 0 9993 2 25115 45.0157 351.9250 0003615 220.7853 139.2728 14.44486382420119 0 ORBCOMM FM 9 1 25116U 97084E 25021.92579392 .00003799 00000-0 11329-2 0 9995 2 25116 45.0160 352.6254 0004410 197.7962 162.2735 14.44389557420327 0 ORBCOMM FM 5 1 25117U 97084F 25021.97944812 .00004430 00000-0 12975-2 0 9995 2 25117 45.0159 349.6120 0001942 261.1891 98.8740 14.45004146419459 0 ORBCOMM FM 6 1 25118U 97084G 25021.99567542 .00004413 00000-0 12883-2 0 9998 2 25118 45.0151 349.4482 0001788 292.6288 116.4455 14.45176475420376 0 ORBCOMM FM 7 1 25119U 97084H 25021.92723854 .00004687 00000-0 13682-2 0 9993 2 25119 45.0146 350.5130 0002078 238.3623 121.7025 14.45088395420350 0 ORBCOMM FM 3 1 25158U 98007B 25021.93473542 .00003291 00000-0 12125-2 0 9990 2 25158 107.9684 195.2698 0044667 147.5070 212.8832 14.33875043403077 0 ORBCOMM FM 4 1 25159U 98007C 25021.38705611 .00003166 00000-0 11650-2 0 9998 2 25159 107.9670 197.2661 0040307 146.1626 214.2097 14.34131526403176 0 ORBCOMM FM 17 1 25413U 98046A 25021.90698760 .00002152 00000-0 80497-3 0 9998 2 25413 44.9922 227.7238 0002599 183.8702 176.2125 14.34545192382164 0 ORBCOMM FM 18 1 25414U 98046B 25021.78543723 .00003638 00000-0 12426-2 0 9999 2 25414 44.9914 149.4986 0005871 248.5583 111.4639 14.37791011383177 0 ORBCOMM FM 19 1 25415U 98046C 25021.80692675 .00003704 00000-0 12690-2 0 9991 2 25415 44.9924 151.1667 0004794 239.6394 248.6793 14.37607678383134 0 ORBCOMM FM 20 1 25416U 98046D 25021.77207644 .00002861 00000-0 10106-2 0 9999 2 25416 44.9924 154.3897 0002020 218.9110 141.1592 14.36638930383207 0 ORBCOMM FM 16 1 25417U 98046E 25021.86225703 .00004087 00000-0 13814-2 0 9997 2 25417 44.9921 147.3461 0005354 259.6091 100.4154 14.38110576383189 0 ORBCOMM FM 15 1 25418U 98046F 25021.59520740 .00003512 00000-0 12017-2 0 9993 2 25418 44.9953 153.3354 0004829 257.6014 102.4294 14.37785570383146 0 ORBCOMM FM 14 1 25419U 98046G 25021.50842645 .00003495 00000-0 11886-2 0 9999 2 25419 44.9940 152.3771 0004069 245.0664 114.9761 14.38088214383096 0 ORBCOMM FM 13 1 25420U 98046H 25021.64156343 .00003449 00000-0 11993-2 0 9997 2 25420 44.9954 158.3784 0005938 246.7259 113.2963 14.37008986382156 0 ORBCOMM FM 21 1 25475U 98053A 25021.96604513 .00002009 00000-0 72212-3 0 9990 2 25475 45.0065 241.6811 0000959 173.9619 186.1241 14.36783284376215 0 ORBCOMM FM 22 1 25476U 98053B 25021.96218705 .00002717 00000-0 94317-3 0 9991 2 25476 45.0056 237.6442 0002872 190.7574 169.3213 14.37643836376226 0 ORBCOMM FM 23 1 25477U 98053C 25021.77390891 .00002054 00000-0 73547-3 0 9994 2 25477 45.0065 244.8873 0001886 185.1346 174.9483 14.36900424376335 0 ORBCOMM FM 24 1 25478U 98053D 25021.76763827 .00002470 00000-0 86570-3 0 9999 2 25478 45.0062 243.0140 0001614 187.7292 172.3531 14.37404663376373 0 ORBCOMM FM 25 1 25479U 98053E 25021.94521058 .00002619 00000-0 91532-3 0 9997 2 25479 45.0052 240.4287 0003725 221.0285 139.0283 14.37394135376696 0 ORBCOMM FM 26 1 25480U 98053F 25021.93486038 .00002090 00000-0 75230-3 0 9996 2 25480 45.0049 235.9325 0005428 247.0054 113.0222 14.36556117376616 0 ORBCOMM FM 27 1 25481U 98053G 25021.93474811 .00002768 00000-0 96459-3 0 9991 2 25481 45.0036 240.7224 0000648 122.3146 237.7765 14.37400262376628 0 ORBCOMM FM 28 1 25482U 98053H 25021.85636249 .00002872 00000-0 99379-3 0 9998 2 25482 45.0036 178.8443 0004290 263.5055 96.5304 14.37665795377295 0 ORBCOMM FM 30 1 25980U 99065A 25021.52381306 .00002518 00000-0 89395-3 0 9994 2 25980 45.0315 63.6449 0006880 333.5689 26.4808 14.36708095313351 0 ORBCOMM FM 31 1 25981U 99065B 25021.49243685 .00002630 00000-0 93220-3 0 9995 2 25981 45.0230 57.3358 0003701 342.1235 17.9482 14.36677910312903 0 ORBCOMM FM 32 1 25982U 99065C 25021.44080954 .00002433 00000-0 88283-3 0 9993 2 25982 45.0153 73.1655 0005238 352.1807 7.8958 14.35711710313506 0 ORBCOMM FM 33 1 25983U 99065D 25021.88736040 .00003833 00000-0 12674-2 0 9991 2 25983 45.0294 334.2093 0008910 34.3373 325.8051 14.39305429314987 0 ORBCOMM FM 36 1 25984U 99065E 25021.52012082 .00003440 00000-0 11869-2 0 9995 2 25984 45.0391 65.6205 0005587 277.6538 82.3676 14.37414128313317 0 ORBCOMM FM 35 1 25985U 99065F 25021.39908590 .00002246 00000-0 80623-3 0 9997 2 25985 45.0394 70.1128 0003194 340.8732 19.1996 14.36501569313674 0 ORBCOMM FM 34 1 25986U 99065G 25021.50810381 .00002332 00000-0 83422-3 0 9997 2 25986 45.0388 70.1158 0005209 304.3318 55.7037 14.36549745313800 0 ORBCOMM FM 38 1 33060U 08031A 25021.79258764 .00004852 00000-0 65883-3 0 9994 2 33060 48.4400 292.3874 0005526 129.2171 230.9236 14.80187499893051 0 ORBCOMM FM 41 1 33061U 08031B 25021.51945363 .00004962 00000-0 67904-3 0 9991 2 33061 48.4439 300.9833 0004638 112.8009 61.9606 14.79813627892505 0 ORBCOMM FM 29 1 33062U 08031C 25021.82244549 .00004954 00000-0 67725-3 0 9996 2 33062 48.4394 307.5011 0006368 112.2967 281.9806 14.79858874892460 0 ORBCOMM FM 39 1 33063U 08031D 25021.91218699 .00004253 00000-0 60356-3 0 9999 2 33063 48.4413 329.8088 0007155 85.2397 274.9335 14.78551921892141 0 ORBCOMM FM 37 1 33064U 08031E 25021.84495851 .00004758 00000-0 66853-3 0 9997 2 33064 48.4405 318.8926 0005632 103.7663 307.8742 14.78761672892382 0 ORBCOMM FM 40 1 33065U 08031F 25021.51849102 .00005868 00000-0 78069-3 0 9999 2 33065 48.4421 306.7926 0007088 114.6975 59.9518 14.80731451892416 0 VESSELSAT 1 1 37840U 11058C 25021.95826907 .00000515 00000-0 13631-3 0 9991 2 37840 19.9614 258.6931 0013659 18.4875 341.6024 14.11297305685625 0 ORBCOMM FM 109 1 40086U 14040A 25021.32953930 .00002257 00000-0 52618-3 0 9992 2 40086 47.0043 349.6653 0001952 358.8605 1.2275 14.57705804559632 0 ORBCOMM FM 107 1 40087U 14040B 25021.84429269 .00002108 00000-0 49318-3 0 9991 2 40087 47.0058 348.2492 0001970 320.5999 39.4743 14.57774916559821 0 ORBCOMM FM 106 1 40088U 14040C 25021.81418237 .00003447 00000-0 61587-3 0 9991 2 40088 47.0579 182.1134 0016553 110.0720 250.1954 14.68743276561955 0 ORBCOMM FM 111 1 40089U 14040D 25021.41556104 .00005659 00000-0 67744-3 0 9992 2 40089 47.0025 53.6317 0030767 213.2199 146.6765 14.84842524568406 0 ORBCOMM FM 104 1 40090U 14040E 25021.33131119 .00001751 00000-0 42930-3 0 9999 2 40090 47.0064 22.5381 0017338 256.1559 103.7397 14.56224262559218 0 ORBCOMM FM 103 1 40091U 14040F 25021.87880464 .00002346 00000-0 54539-3 0 9992 2 40091 47.0063 348.5565 0002595 322.3319 37.7384 14.57719358542751 0 ORBCOMM FM 114 1 41179U 15081A 25021.90557649 .00001661 00000-0 39631-3 0 9991 2 41179 47.0018 257.5723 0001833 35.8364 324.2644 14.57782446483120 0 ORBCOMM FM 119 1 41180U 15081B 25021.74889667 .00002237 00000-0 52210-3 0 9991 2 41180 46.9982 167.5649 0000824 160.3409 199.7508 14.57691204484351 0 ORBCOMM FM 105 1 41181U 15081C 25021.78620791 .00001031 00000-0 33776-3 0 9994 2 41181 47.0006 158.2129 0001198 359.5608 0.5271 14.44983385479573 0 ORBCOMM FM 110 1 41182U 15081D 25021.74349463 .00001901 00000-0 44774-3 0 9991 2 41182 47.0001 257.7003 0001669 193.3347 166.7495 14.57841475482970 0 ORBCOMM FM 118 1 41183U 15081E 25021.72525328 .00001979 00000-0 46632-3 0 9996 2 41183 47.0033 258.1943 0002500 189.1997 170.8843 14.57663762483079 0 ORBCOMM FM 112 1 41184U 15081F 25021.79392481 .00002470 00000-0 57280-3 0 9994 2 41184 46.9968 166.5242 0000164 167.6925 192.3964 14.57672703484300 0 ORBCOMM FM 113 1 41185U 15081G 25021.83918295 .00002817 00000-0 64688-3 0 9992 2 41185 46.9988 166.6122 0000844 165.0606 195.0304 14.57758071484293 0 ORBCOMM FM 115 1 41186U 15081H 25021.96866852 .00002343 00000-0 49730-3 0 9993 2 41186 46.9992 14.7351 0000385 335.2282 24.8587 14.61980247486377 0 ORBCOMM FM 108 1 41187U 15081J 25021.51809180 .00002654 00000-0 61287-3 0 9992 2 41187 47.0042 79.4088 0003073 331.1320 28.9395 14.57669905485399 0 ORBCOMM FM 117 1 41188U 15081K 25021.62161516 .00002585 00000-0 59771-3 0 9997 2 41188 47.0004 77.7336 0003224 342.5735 17.5039 14.57669772485457 0 ORBCOMM FM 116 1 41189U 15081L 25021.88615273 .00001947 00000-0 45933-3 0 9996 2 41189 47.0008 166.3367 0001078 132.0873 228.0104 14.57677306484308